CW2098 Weather Reports


Display with metric or nautical units.
time (UTC)temp
F
wind
direction
speed
MPH
gust
MPH
rain 1hr
in
rain 24hr
in
rain mn
in
humidity
%
barometer
mb
20260901070054 80 10 1.0 2.0 0.00 0.10 0.00 93 1001.5
20260901065053 80 11 2.0 3.0 0.00 0.10 0.00 93 1001.7
20260901064054 80 39 1.0 3.0 0.00 0.10 0.00 93 1001.7
20260901063051 80 24 2.0 3.0 0.00 0.10 0.00 93 1001.9
20260901061534 80 34 2.0 4.0 0.00 0.10 0.00 92 1002.3
20260901060048 80 60 1.0 2.0 0.00 0.10 0.00 92 1001.8
20260901055048 80 82 1.0 2.0 0.00 0.10 0.00 92 1001.7
20260901054048 80 59 0.0 2.0 0.00 0.10 0.00 91 1001.7
20260901053054 80 0 1.0 2.0 0.00 0.10 0.00 91 1001.7
20260901052046 80 111 2.0 4.0 0.00 0.10 0.00 91 1002.2
20260901051047 80 21 2.0 4.0 0.00 0.10 0.00 91 1002.4
20260901050530 80 47 2.0 3.0 0.00 0.10 0.00 92 1002.3
20260901045047 80 58 2.0 4.0 0.00 0.10 0.00 92 1002.3
20260901044047 80 27 2.0 3.0 0.00 0.10 0.00 92 1002.3
20260901043047 80 28 2.0 3.0 0.00 0.10 0.00 92 1002.6
20260901042047 80 41 1.0 2.0 0.00 0.10 0.00 92 1002.6
20260901041043 80 58 2.0 3.0 0.00 0.10 0.00 92 1002.6
20260901040052 81 44 2.0 4.0 0.00 0.10 0.00 92 1002.7
20260901035041 81 24 2.0 4.0 0.00 0.10 0.10 92 1002.9
20260901034041 81 40 2.0 4.0 0.00 0.10 0.10 91 1003.0
20260901033041 81 38 2.0 5.0 0.00 0.10 0.10 91 1003.1
20260901032040 81 48 2.0 3.0 0.00 0.10 0.10 91 1003.2
20260901031041 81 14 3.0 4.0 0.00 0.10 0.10 91 1003.3
20260901030041 81 36 3.0 5.0 0.00 0.10 0.10 90 1003.4
20260901024521 81 35 2.0 4.0 0.00 0.10 0.10 90 1003.0
20260901023036 81 44 1.0 2.0 0.00 0.10 0.10 90 1002.7
20260901022033 81 44 1.0 3.0 0.00 0.10 0.10 90 1002.7
20260901021508 81 0 2.0 3.0 0.00 0.10 0.10 90 1002.7
20260901020033 81 77 2.0 4.0 0.00 0.10 0.10 90 1002.7
20260901015033 81 21 2.0 4.0 0.00 0.10 0.10 89 1002.6
20260901014033 81 74 2.0 4.0 0.00 0.10 0.10 89 1002.3
20260901013514 81 77 2.0 5.0 0.00 0.10 0.10 89 1002.2
20260901012028 81 74 3.0 5.0 0.00 0.10 0.10 89 1002.1
20260901011027 81 95 2.0 5.0 0.00 0.10 0.10 89 1001.9
20260901010029 81 59 3.0 7.0 0.00 0.10 0.10 89 1001.9
20260901005028 81 39 4.0 8.0 0.00 0.10 0.10 88 1002.2
20260901004028 81 46 4.0 7.0 0.00 0.10 0.10 89 1002.3
20260901003508 81 26 4.0 7.0 0.00 0.10 0.10 88 1002.1
20260901002514 82 33 4.0 8.0 0.00 0.10 0.10 88 1002.3
20260901001029 82 19 4.0 9.0 0.00 0.10 0.10 88 1002.3
20260901000027 82 40 4.0 9.0 0.00 0.10 0.10 87 1002.6
20260831235027 82 31 4.0 7.0 0.00 0.10 0.10 87 1002.7
20260831234027 82 36 4.0 8.0 0.00 0.10 0.10 86 1002.8
20260831233027 82 44 5.0 9.0 0.00 0.10 0.10 85 1002.8
20260831232028 83 62 5.0 8.0 0.00 0.10 0.10 84 1002.9
20260831231511 83 11 4.0 8.0 0.00 0.10 0.10 83 1003.1
20260831230027 83 25 5.0 8.0 0.00 0.10 0.10 82 1002.9
20260831225024 83 46 4.0 8.0 0.00 0.10 0.10 82 1002.9
20260831224033 84 35 4.0 8.0 0.00 0.10 0.10 81 1003.2
20260831223021 84 56 5.0 9.0 0.00 0.10 0.10 79 1004.6
20260831222021 84 49 5.0 8.0 0.00 0.10 0.10 77 1004.7
20260831221021 85 45 5.0 9.0 0.00 0.10 0.10 76 1004.8
20260831220021 85 24 4.0 9.0 0.00 0.10 0.10 74 1005.3
20260831215456 85 38 5.0 8.0 0.00 0.10 0.10 75 1005.7
20260831214019 85 49 5.0 8.0 0.00 0.10 0.10 74 1006.3
20260831213019 85 82 5.0 9.0 0.00 0.10 0.10 75 1006.0
20260831212019 85 97 6.0 9.0 0.00 0.10 0.10 76 1005.9
20260831211019 85 128 5.0 10.0 0.00 0.10 0.10 78 1006.6
20260831210500 86 57 5.0 10.0 0.00 0.10 0.10 76 1007.0
20260831205020 86 58 5.0 8.0 0.00 0.10 0.10 74 1007.9
20260831204017 86 33 6.0 10.0 0.00 0.10 0.10 75 1007.9
20260831203017 86 70 5.0 10.0 0.00 0.10 0.10 74 1008.2
20260831202017 85 36 5.0 9.0 0.00 0.10 0.10 75 1008.3
20260831201014 85 17 5.0 10.0 0.00 0.10 0.10 77 1008.0
20260831200014 85 39 5.0 9.0 0.00 0.10 0.10 77 1008.4
20260831195014 85 41 6.0 9.0 0.00 0.10 0.10 75 1008.9
20260831194454 85 42 6.0 11.0 0.00 0.10 0.10 74 1008.8
20260831193014 85 37 6.0 9.0 0.00 0.10 0.10 75 1009.0
20260831192014 85 14 6.0 10.0 0.00 0.10 0.10 74 1009.7
20260831191015 85 21 6.0 12.0 0.00 0.10 0.10 74 1009.8
20260831190011 85 46 5.0 9.0 0.00 0.10 0.10 76 1010.4
20260831185011 85 16 6.0 9.0 0.00 0.10 0.10 75 1010.4
20260831184011 85 14 5.0 9.0 0.00 0.10 0.10 75 1010.6
20260831183011 86 349 5.0 10.0 0.00 0.10 0.10 75 1011.6
20260831182012 85 7 5.0 10.0 0.00 0.10 0.10 75 1011.7
20260831181012 85 43 5.0 9.0 0.00 0.10 0.10 76 1011.5
20260831175009 85 43 5.0 8.0 0.00 0.10 0.10 77 1012.4
20260831174009 85 40 5.0 9.0 0.00 0.10 0.10 77 1009.3
20260831173009 85 7 5.0 9.0 0.00 0.10 0.10 78 1013.2
20260831172010 85 7 5.0 10.0 0.00 0.10 0.10 79 1013.1
20260831171009 84 19 6.0 10.0 0.00 0.10 0.10 80 1012.3
20260831170010 84 8 5.0 9.0 0.00 0.10 0.10 81 1013.0
20260831165453 84 18 5.0 10.0 0.00 0.10 0.10 82 1012.5
20260831164010 84 34 5.0 9.0 0.00 0.10 0.10 82 1012.8
20260831163010 84 11 4.0 9.0 0.00 0.10 0.10 82 1013.2
20260831162009 84 37 5.0 9.0 0.00 0.10 0.10 83 1013.6
20260831161018 84 39 5.0 9.0 0.00 0.10 0.10 84 1014.0
20260831160006 83 9 6.0 9.0 0.02 0.10 0.10 84 1013.5
20260831155006 83 9 5.0 9.0 0.10 0.10 0.10 84 1012.6
20260831154447 83 39 6.0 12.0 0.10 0.10 0.10 85 1012.4
20260831153006 83 37 5.0 10.0 0.10 0.10 0.10 85 1013.7
20260831152007 82 31 3.0 8.0 0.10 0.10 0.10 87 1008.1
20260831151018 82 14 4.0 7.0 0.10 0.10 0.10 86 1009.0
20260831150449 83 11 4.0 7.0 0.07 0.07 0.07 83 1006.5
20260831145003 84 11 3.0 6.0 0.00 0.00 0.00 80 1006.5
20260831144004 85 41 2.0 5.0 0.00 0.00 0.00 78 1006.3
20260831143440 86 36 3.0 5.0 0.00 0.00 0.00 77 1007.5
20260831142444 86 23 3.0 5.0 0.00 0.00 0.00 78 1012.7
20260831141004 86 27 3.0 5.0 0.00 0.00 0.00 78 1012.4
20260831140006 86 24 3.0 5.0 0.00 0.00 0.00 78 1012.2
20260831135004 86 20 3.0 5.0 0.00 0.00 0.00 78 1011.2
20260831134003 85 5 3.0 6.0 0.00 0.00 0.00 79 1010.7
20260831133440 85 39 2.0 4.0 0.00 0.00 0.00 80 1010.5
20260831132003 84 23 2.0 3.0 0.00 0.00 0.00 80 1009.8
20260831131440 83 63 2.0 4.0 0.00 0.00 0.00 82 1009.3
20260831130005 83 48 3.0 5.0 0.00 0.00 0.00 85 1008.6
20260831125003 82 46 3.0 6.0 0.00 0.00 0.00 86 1007.6
20260831124003 82 42 3.0 6.0 0.00 0.00 0.00 88 1007.3
20260831122959 81 45 3.0 5.0 0.00 0.00 0.00 89 1006.7
20260831121959 81 30 3.0 5.0 0.00 0.00 0.00 91 1006.1
20260831121000 80 9 3.0 6.0 0.00 0.00 0.00 92 1005.7
20260831120000 80 30 3.0 5.0 0.00 0.00 0.00 93 1005.4
20260831115000 79 26 3.0 6.0 0.00 0.00 0.00 93 1004.2
20260831113947 78 16 3.0 6.0 0.00 0.00 0.00 94 1002.7
20260831112948 78 33 3.0 5.0 0.00 0.00 0.00 94 1002.2
20260831111944 78 27 1.0 3.0 0.00 0.00 0.00 94 1001.4
20260831110946 78 23 2.0 4.0 0.00 0.00 0.00 94 1001.3
20260831105946 78 37 2.0 3.0 0.00 0.00 0.00 94 1001.1
20260831105431 78 21 2.0 4.0 0.00 0.00 0.00 94 1001.1
20260831103932 78 49 2.0 4.0 0.00 0.00 0.00 94 1001.4
20260831102932 78 35 2.0 4.0 0.00 0.00 0.00 95 1001.2
20260831102410 78 58 2.0 5.0 0.00 0.00 0.00 95 1001.3
20260831101411 79 0 1.0 3.0 0.00 0.00 0.00 95 1001.4
20260831095929 79 76 2.0 2.0 0.00 0.00 0.00 95 1001.8